FW2602 Weather Reports


Display with metric or nautical units.
time (UTC)temp
F
wind
direction
speed
MPH
gust
MPH
rain 1hr
in
rain 24hr
in
rain mn
in
humidity
%
barometer
mb
20260906133020 60 115 0.0 2.0 0.00 0.06 0.03 90 1015.7
20260906132510 60 294 0.0 2.0 0.00 0.06 0.03 90 1015.7
20260906132015 60 43 0.0 3.0 0.00 0.06 0.03 91 1015.6
20260906131525 59 73 0.0 4.0 0.00 0.06 0.03 91 1015.8
20260906131008 59 122 0.0 0.0 0.00 0.06 0.03 92 1015.8
20260906130520 59 121 0.0 2.0 0.00 0.06 0.03 92 1015.8
20260906130020 59 89 0.0 2.0 0.00 0.06 0.03 92 1015.8
20260906125509 59 51 0.0 2.0 0.00 0.06 0.03 92 1015.8
20260906125016 59 129 0.0 1.0 0.00 0.06 0.03 93 1015.7
20260906124522 59 135 0.0 1.0 0.00 0.06 0.03 94 1015.7
20260906124027 59 82 0.0 2.0 0.00 0.06 0.03 94 1015.7
20260906123516 59 289 0.0 2.0 0.00 0.06 0.03 95 1015.6
20260906123021 59 293 0.0 0.0 0.00 0.06 0.03 96 1015.5
20260906122525 58 293 0.0 0.0 0.00 0.06 0.03 96 1015.6
20260906122056 59 292 0.0 0.0 0.00 0.06 0.03 96 1015.7
20260906121019 58 292 0.0 1.0 0.00 0.06 0.03 97 1015.6
20260906120515 58 292 0.0 1.0 0.00 0.06 0.03 97 1015.5
20260906120014 58 293 0.0 1.0 0.00 0.06 0.03 97 1015.4
20260906115516 58 280 0.0 2.0 0.00 0.06 0.03 97 1015.5
20260906115013 58 289 0.0 2.0 0.00 0.06 0.03 97 1015.4
20260906114528 58 317 0.0 0.0 0.00 0.06 0.03 97 1015.4
20260906114012 58 317 0.0 0.0 0.00 0.06 0.03 97 1015.3
20260906113511 58 317 0.0 0.0 0.00 0.06 0.03 97 1015.2
20260906113011 58 318 0.0 0.0 0.00 0.06 0.03 97 1015.2
20260906112510 58 317 0.0 0.0 0.00 0.06 0.03 97 1015.0
20260906112013 58 318 0.0 0.0 0.00 0.06 0.03 97 1015.0
20260906111509 58 317 0.0 0.0 0.00 0.06 0.03 97 1014.9
20260906111008 58 317 0.0 0.0 0.00 0.06 0.03 97 1014.8
20260906110508 58 317 0.0 0.0 0.00 0.06 0.03 97 1014.8
20260906110011 58 317 0.0 1.0 0.00 0.06 0.03 97 1014.7
20260906105507 58 317 0.0 1.0 0.00 0.06 0.03 97 1014.6
20260906105007 58 317 0.0 0.0 0.00 0.06 0.03 97 1014.6
20260906104507 58 318 0.0 0.0 0.00 0.06 0.03 97 1014.6
20260906104005 58 317 0.0 0.0 0.00 0.06 0.03 97 1014.6
20260906103504 58 318 0.0 0.0 0.00 0.06 0.03 97 1014.5
20260906103004 58 317 0.0 1.0 0.00 0.06 0.03 97 1014.4
20260906102508 58 318 0.0 1.0 0.00 0.06 0.03 97 1014.3
20260906102003 58 318 0.0 0.0 0.00 0.06 0.03 97 1014.2
20260906101502 58 318 0.0 0.0 0.00 0.06 0.03 97 1014.1
20260906101003 58 318 0.0 0.0 0.00 0.06 0.03 97 1014.1
20260906100503 58 317 0.0 1.0 0.00 0.06 0.03 97 1014.0
20260906100104 58 318 0.0 1.0 0.00 0.06 0.03 97 1014.0
20260906095601 58 316 0.0 0.0 0.00 0.06 0.03 97 1013.8
20260906095059 58 318 0.0 0.0 0.00 0.06 0.03 97 1013.9
20260906094614 58 318 0.0 1.0 0.00 0.06 0.03 97 1013.7
20260906094058 58 62 0.0 0.0 0.00 0.06 0.03 97 1013.7
20260906093558 58 62 0.0 0.0 0.00 0.06 0.03 97 1013.7
20260906093130 58 63 0.0 0.0 0.00 0.06 0.03 97 1013.6
20260906092557 58 62 0.0 0.0 0.00 0.06 0.03 97 1013.6
20260906092056 58 62 0.0 0.0 0.00 0.06 0.03 97 1013.5
20260906091606 58 63 0.0 0.0 0.00 0.06 0.03 97 1013.6
20260906091057 58 62 0.0 0.0 0.00 0.06 0.03 97 1013.5
20260906090555 58 62 0.0 0.0 0.00 0.06 0.03 97 1013.3
20260906090054 58 63 0.0 0.0 0.00 0.06 0.03 97 1013.4
20260906085555 58 62 0.0 0.0 0.00 0.06 0.03 97 1013.3
20260906085053 58 62 0.0 0.0 0.00 0.06 0.03 97 1013.3
20260906084554 58 62 0.0 0.0 0.00 0.06 0.03 97 1013.2
20260906084056 58 62 0.0 0.0 0.00 0.06 0.03 97 1013.2
20260906083553 58 63 0.0 0.0 0.00 0.06 0.03 97 1013.1
20260906083053 58 62 0.0 0.0 0.00 0.06 0.03 97 1013.1
20260906082552 58 62 0.0 0.0 0.00 0.06 0.03 97 1013.1
20260906082052 58 62 0.0 0.0 0.00 0.06 0.03 97 1013.1
20260906081552 58 62 0.0 0.0 0.00 0.06 0.03 97 1013.2
20260906081051 58 63 0.0 0.0 0.00 0.06 0.03 97 1013.1
20260906080552 58 63 0.0 0.0 0.00 0.06 0.03 97 1013.1
20260906080053 57 62 0.0 0.0 0.00 0.06 0.03 97 1013.2
20260906075551 57 62 0.0 0.0 0.00 0.06 0.03 97 1013.1
20260906075051 57 63 0.0 0.0 0.00 0.06 0.03 97 1013.1
20260906074554 57 63 0.0 1.0 0.00 0.06 0.03 97 1013.0
20260906074050 57 63 0.0 1.0 0.00 0.06 0.03 97 1013.0
20260906073550 57 63 0.0 1.0 0.00 0.06 0.03 97 1013.1
20260906073050 57 62 0.0 1.0 0.00 0.06 0.03 97 1013.0
20260906072549 57 63 0.0 0.0 0.00 0.06 0.03 97 1013.0
20260906072049 58 63 0.0 0.0 0.00 0.06 0.03 97 1013.0
20260906071547 58 63 0.0 0.0 0.00 0.06 0.03 97 1012.9
20260906071047 58 62 0.0 0.0 0.00 0.06 0.03 97 1013.0
20260906070548 58 63 0.0 0.0 0.00 0.06 0.03 97 1012.9
20260906070045 58 62 0.0 0.0 0.00 0.06 0.03 97 1012.9
20260906065544 59 62 0.0 0.0 0.00 0.06 0.03 97 1013.0
20260906065043 59 62 0.0 0.0 0.00 0.06 0.03 97 1013.0
20260906064543 59 63 0.0 0.0 0.00 0.06 0.03 97 1013.0
20260906064044 59 63 0.0 0.0 0.00 0.06 0.03 97 1013.0
20260906063542 59 62 0.0 0.0 0.00 0.06 0.03 97 1013.0
20260906063043 59 63 0.0 0.0 0.00 0.06 0.03 97 1012.9
20260906062542 59 67 0.0 0.0 0.00 0.06 0.03 97 1013.0
20260906062042 59 67 0.0 0.0 0.00 0.06 0.03 97 1013.0
20260906061542 59 67 0.0 0.0 0.00 0.06 0.03 96 1013.0
20260906061041 59 67 0.0 0.0 0.01 0.06 0.03 96 1013.0
20260906060541 58 67 0.0 0.0 0.02 0.06 0.03 96 1013.1
20260906060040 58 67 0.0 0.0 0.02 0.06 0.03 96 1013.1
20260906055543 58 67 0.0 0.0 0.03 0.06 0.03 96 1013.2
20260906055040 58 67 0.0 0.0 0.03 0.06 0.03 96 1013.2
20260906054542 59 67 0.0 0.0 0.03 0.06 0.03 96 1013.2
20260906054038 59 67 0.0 0.0 0.03 0.06 0.03 95 1013.2
20260906053537 59 67 0.0 0.0 0.03 0.06 0.03 95 1013.2
20260906053040 59 67 0.0 0.0 0.03 0.06 0.03 95 1013.2
20260906052536 59 67 0.0 0.0 0.03 0.06 0.03 95 1013.2
20260906052037 60 67 0.0 0.0 0.03 0.06 0.03 95 1013.3
20260906051548 60 67 0.0 0.0 0.03 0.06 0.03 95 1013.3
20260906051035 60 67 0.0 0.0 0.02 0.05 0.02 94 1013.4
20260906050536 60 67 0.0 0.0 0.01 0.04 0.01 95 1013.4
20260906050034 60 67 0.0 3.0 0.01 0.04 0.01 94 1013.4
20260906045534 60 67 0.0 3.0 0.00 0.03 0.00 94 1013.3
20260906045033 60 83 0.0 1.0 0.00 0.03 0.00 95 1013.3
20260906044532 60 83 0.0 1.0 0.00 0.03 0.00 95 1013.3
20260906044031 60 88 0.0 1.0 0.00 0.03 0.00 95 1013.3
20260906043535 60 89 0.0 1.0 0.00 0.03 0.00 95 1013.3
20260906043033 60 89 0.0 1.0 0.00 0.03 0.00 95 1013.3
20260906042531 60 89 0.0 2.0 0.00 0.03 0.00 95 1013.4
20260906042030 60 89 0.0 2.0 0.00 0.03 0.00 95 1013.4
20260906041530 60 89 0.0 1.0 0.00 0.03 0.00 95 1013.3
20260906041032 60 89 0.0 0.0 0.00 0.03 0.00 95 1013.3
20260906040529 60 89 0.0 0.0 0.00 0.03 0.00 95 1013.2
20260906040032 60 89 0.0 0.0 0.00 0.03 0.00 95 1013.3
20260906035527 60 89 0.0 0.0 0.00 0.03 0.03 95 1013.2
20260906035032 60 89 0.0 0.0 0.00 0.03 0.03 95 1013.1
20260906034527 60 89 0.0 0.0 0.00 0.03 0.03 95 1013.1
20260906034026 60 89 0.0 0.0 0.00 0.03 0.03 95 1013.1
20260906033527 60 89 0.0 0.0 0.00 0.03 0.03 95 1013.1
20260906033037 61 89 0.0 0.0 0.00 0.03 0.03 95 1013.0
20260906032528 61 89 0.0 0.0 0.00 0.03 0.03 95 1013.1
20260906032026 61 89 0.0 0.0 0.00 0.03 0.03 95 1013.1
20260906031535 61 89 0.0 0.0 0.00 0.03 0.03 95 1013.1
20260906031025 61 89 0.0 0.0 0.00 0.03 0.03 95 1013.0
20260906030524 60 89 0.0 0.0 0.00 0.03 0.03 95 1013.0
20260906030023 60 89 0.0 0.0 0.00 0.03 0.03 95 1012.9
20260906025523 60 89 0.0 0.0 0.00 0.03 0.03 95 1012.9
20260906025024 60 89 0.0 0.0 0.00 0.03 0.03 95 1012.9
20260906024539 60 89 0.0 0.0 0.00 0.03 0.03 95 1012.8
20260906024022 60 89 0.0 0.0 0.00 0.03 0.03 95 1012.8
20260906023522 60 89 0.0 0.0 0.00 0.03 0.03 95 1012.8
20260906023025 60 89 0.0 0.0 0.00 0.03 0.03 95 1012.8
20260906022524 60 89 0.0 0.0 0.00 0.03 0.03 95 1012.8
20260906022021 60 89 0.0 0.0 0.00 0.03 0.03 95 1012.7
20260906021521 60 89 0.0 0.0 0.00 0.03 0.03 95 1012.7
20260906021020 60 89 0.0 0.0 0.00 0.03 0.03 95 1012.6
20260906020520 60 89 0.0 0.0 0.00 0.03 0.03 95 1012.6
20260906020019 60 89 0.0 1.0 0.00 0.03 0.03 95 1012.5
20260906015519 60 89 0.0 1.0 0.00 0.03 0.03 95 1012.5
20260906015020 60 89 0.0 1.0 0.00 0.03 0.03 95 1012.6
20260906014529 60 89 0.0 1.0 0.00 0.03 0.03 95 1012.6
20260906014017 60 89 0.0 1.0 0.00 0.03 0.03 95 1012.4
20260906013517 60 89 0.0 1.0 0.00 0.03 0.03 95 1012.4
20260906013035 60 89 0.0 1.0 0.00 0.03 0.03 95 1012.4
20260906012519 60 89 0.0 2.0 0.00 0.03 0.03 95 1012.3
20260906012017 60 89 0.0 2.0 0.00 0.03 0.03 95 1012.3
20260906011517 60 79 0.0 0.0 0.00 0.03 0.03 95 1012.4
20260906011016 60 79 0.0 1.0 0.00 0.03 0.03 95 1012.3
20260906010516 60 79 0.0 1.0 0.00 0.03 0.03 95 1012.3
20260906010022 60 79 0.0 1.0 0.00 0.03 0.03 95 1012.3
20260906005516 60 79 0.0 1.0 0.00 0.03 0.03 95 1012.3
20260906005016 61 79 0.0 1.0 0.00 0.03 0.03 95 1012.3
20260906004515 61 79 0.0 1.0 0.00 0.03 0.03 95 1012.3
20260906004018 61 79 0.0 1.0 0.00 0.03 0.03 95 1012.4
20260906003527 61 79 0.0 0.0 0.00 0.03 0.03 95 1012.4
20260906003015 61 79 0.0 0.0 0.00 0.03 0.03 95 1012.3
20260906002519 61 79 0.0 0.0 0.00 0.03 0.03 95 1012.3
20260906002007 61 79 0.0 0.0 0.00 0.03 0.03 95 1012.3
20260906001521 61 79 0.0 1.0 0.00 0.03 0.03 95 1012.3
20260906001019 60 79 0.0 1.0 0.00 0.03 0.03 95 1012.3
20260906000522 60 79 0.0 1.0 0.00 0.03 0.03 95 1012.2
20260906000010 60 79 0.0 1.0 0.00 0.03 0.03 94 1012.2
20260905235519 60 79 0.0 1.0 0.00 0.03 0.03 94 1012.0
20260905235024 60 79 0.0 1.0 0.00 0.03 0.03 94 1012.0
20260905234512 60 79 0.0 1.0 0.00 0.03 0.03 94 1011.9
20260905234014 61 79 0.0 1.0 0.00 0.03 0.03 94 1012.0
20260905233528 61 79 0.0 2.0 0.00 0.03 0.03 94 1012.1
20260905233011 61 79 0.0 2.0 0.00 0.03 0.03 94 1012.0
20260905232519 61 82 0.0 1.0 0.00 0.03 0.03 94 1012.0
20260905232020 61 90 0.0 0.0 0.00 0.03 0.03 93 1012.0
20260905231529 61 90 0.0 1.0 0.00 0.03 0.03 93 1012.0
20260905231012 61 90 0.0 1.0 0.00 0.03 0.03 93 1011.9
20260905230521 61 90 0.0 1.0 0.00 0.03 0.03 92 1011.9
20260905230023 62 79 0.0 1.0 0.00 0.03 0.03 92 1011.9
20260905225509 63 75 0.0 1.0 0.00 0.03 0.03 93 1011.9
20260905225016 63 74 0.0 1.0 0.00 0.03 0.03 93 1011.9
20260905224524 64 73 0.0 1.0 0.00 0.03 0.03 93 1011.8
20260905224008 64 72 0.0 0.0 0.00 0.03 0.03 93 1011.7
20260905223518 64 72 0.0 0.0 0.00 0.03 0.03 92 1011.7
20260905223017 64 72 0.0 0.0 0.00 0.03 0.03 92 1011.7
20260905222527 64 72 0.0 0.0 0.00 0.03 0.03 91 1011.5
20260905222012 65 72 0.0 0.0 0.00 0.03 0.03 90 1011.5
20260905221517 65 72 0.0 0.0 0.00 0.03 0.03 88 1011.5
20260905221020 66 72 0.0 1.0 0.00 0.03 0.03 88 1011.6
20260905220507 66 74 0.0 2.0 0.00 0.03 0.03 90 1011.5
20260905220013 65 309 0.0 2.0 0.00 0.03 0.03 94 1011.5
20260905215520 63 308 0.0 2.0 0.00 0.03 0.03 95 1011.4
20260905215011 62 78 0.0 0.0 0.00 0.03 0.03 95 1011.4
20260905214525 62 78 0.0 0.0 0.00 0.03 0.03 94 1011.3
20260905214022 62 78 0.0 2.0 0.00 0.03 0.03 94 1011.2
20260905213513 62 77 0.0 2.0 0.00 0.03 0.03 94 1011.2
20260905213018 62 87 0.0 2.0 0.00 0.03 0.03 94 1011.1
20260905212524 62 81 1.0 2.0 0.02 0.03 0.03 94 1011.1
20260905212009 62 79 0.0 2.0 0.03 0.03 0.03 94 1011.0
20260905211533 63 85 0.0 1.0 0.03 0.03 0.03 93 1011.1
20260905211018 63 84 0.0 1.0 0.03 0.03 0.03 93 1011.1
20260905210525 63 85 0.0 1.0 0.03 0.03 0.03 93 1011.1
20260905210011 63 101 0.0 2.0 0.03 0.03 0.03 93 1011.1
20260905205520 63 94 0.0 2.0 0.03 0.03 0.03 93 1011.1
20260905205021 63 71 0.0 1.0 0.03 0.03 0.03 93 1011.1
20260905204530 63 70 0.0 0.0 0.03 0.03 0.03 92 1011.1
20260905204013 63 71 0.0 1.0 0.03 0.03 0.03 91 1011.1
20260905203524 63 71 0.0 1.0 0.03 0.03 0.03 89 1011.1
20260905203010 64 65 0.0 3.0 0.03 0.03 0.03 87 1011.1
20260905202515 64 71 1.0 6.0 0.00 0.00 0.00 85 1011.1
20260905202019 64 83 3.0 7.0 0.00 0.00 0.00 85 1010.9
20260905201527 65 70 3.0 8.0 0.00 0.00 0.00 83 1010.9
20260905201014 65 69 4.0 8.0 0.00 0.00 0.00 83 1010.9
20260905200519 65 77 3.0 7.0 0.00 0.00 0.00 83 1010.9
20260905200021 66 86 0.0 5.0 0.00 0.00 0.00 84 1011.0
20260905195511 66 69 0.0 5.0 0.00 0.00 0.00 82 1010.9
20260905195018 68 78 1.0 6.0 0.00 0.00 0.00 80 1010.8
20260905194525 68 94 1.0 6.0 0.00 0.00 0.00 77 1010.7
20260905194010 69 83 2.0 10.0 0.00 0.00 0.00 75 1010.7
20260905193519 71 63 5.0 10.0 0.00 0.00 0.00 72 1010.6
20260905193022 72 276 3.0 6.0 0.00 0.00 0.00 70 1010.5
20260905192531 71 248 1.0 6.0 0.00 0.00 0.00 68 1010.5
20260905192012 71 280 1.0 7.0 0.00 0.00 0.00 70 1010.5
20260905191519 70 297 3.0 7.0 0.00 0.00 0.00 70 1010.6
20260905191024 70 276 4.0 10.0 0.00 0.00 0.00 68 1010.6
20260905190512 71 300 1.0 6.0 0.00 0.00 0.00 71 1010.6
20260905190015 71 141 1.0 6.0 0.00 0.00 0.00 71 1010.6
20260905185526 70 280 1.0 6.0 0.00 0.00 0.00 69 1010.7
20260905185010 71 291 2.0 6.0 0.00 0.00 0.00 70 1010.8
20260905184533 72 270 0.0 8.0 0.00 0.00 0.00 68 1010.8
20260905184003 72 282 2.0 8.0 0.00 0.00 0.00 66 1010.7
20260905183515 73 249 0.0 5.0 0.00 0.00 0.00 72 1010.6
20260905183018 71 290 0.0 7.0 0.00 0.00 0.00 72 1010.7
20260905182509 71 280 1.0 7.0 0.00 0.00 0.00 70 1010.6
20260905182021 71 282 0.0 6.0 0.00 0.00 0.00 71 1010.7
20260905181527 71 293 2.0 6.0 0.00 0.00 0.00 75 1010.8
20260905181013 70 307 0.0 11.0 0.00 0.00 0.00 73 1010.8
20260905180517 70 298 6.0 11.0 0.00 0.00 0.00 72 1010.8
20260905180024 70 283 4.0 9.0 0.00 0.00 0.00 72 1010.8
20260905175513 71 298 2.0 7.0 0.00 0.00 0.00 71 1010.8
20260905175019 71 243 3.0 8.0 0.00 0.00 0.00 67 1010.8
20260905174508 71 289 4.0 8.0 0.00 0.00 0.00 68 1010.7
20260905174015 70 150 0.0 6.0 0.00 0.00 0.00 68 1010.8
20260905173525 70 88 2.0 7.0 0.00 0.00 0.00 72 1010.8
20260905173010 69 302 0.0 10.0 0.00 0.00 0.00 75 1010.8
20260905172517 69 295 4.0 8.0 0.00 0.00 0.00 76 1010.8
20260905172022 68 273 2.0 5.0 0.00 0.00 0.00 75 1010.9
20260905171528 69 314 2.0 7.0 0.00 0.00 0.00 72 1010.8
20260905171011 69 276 2.0 8.0 0.00 0.00 0.00 74 1010.9
20260905170521 69 283 2.0 7.0 0.00 0.00 0.00 75 1010.9
20260905170023 69 291 0.0 4.0 0.00 0.00 0.00 75 1011.0
20260905165512 69 271 0.0 1.0 0.00 0.00 0.00 72 1010.9
20260905165020 69 339 0.0 2.0 0.00 0.00 0.00 72 1010.9
20260905164524 69 338 0.0 3.0 0.00 0.00 0.00 72 1010.9
20260905164013 69 311 0.0 6.0 0.00 0.00 0.00 73 1010.9
20260905163515 69 92 0.0 6.0 0.00 0.00 0.00 74 1010.9
20260905163016 69 103 0.0 4.0 0.00 0.00 0.00 71 1010.9
20260905162530 69 297 0.0 4.0 0.00 0.00 0.00 71 1011.0
20260905162010 68 65 0.0 2.0 0.00 0.00 0.00 73 1010.9
20260905161515 68 105 0.0 4.0 0.00 0.00 0.00 75 1011.0
20260905161023 68 262 1.0 4.0 0.00 0.00 0.00 77 1011.0
20260905160511 67 309 0.0 3.0 0.00 0.00 0.00 77 1011.1
20260905160017 67 96 0.0 4.0 0.00 0.00 0.00 76 1011.2
20260905155526 68 94 0.0 3.0 0.00 0.00 0.00 76 1011.2
20260905155023 67 264 0.0 4.0 0.00 0.00 0.00 78 1011.2
20260905154527 67 127 1.0 6.0 0.00 0.00 0.00 78 1011.2
20260905154013 67 277 2.0 5.0 0.00 0.00 0.00 79 1011.3
20260905153518 66 205 0.0 5.0 0.00 0.00 0.00 79 1011.3
20260905153019 66 295 0.0 5.0 0.00 0.00 0.00 80 1011.3
20260905152528 66 297 0.0 4.0 0.00 0.00 0.00 82 1011.4
20260905152013 65 112 0.0 2.0 0.00 0.00 0.00 81 1011.3
20260905151520 64 108 0.0 2.0 0.00 0.00 0.00 82 1011.5
20260905151027 64 127 0.0 5.0 0.00 0.00 0.00 80 1011.5
20260905150511 65 314 0.0 3.0 0.00 0.00 0.00 83 1011.4
20260905150016 64 250 1.0 7.0 0.00 0.00 0.00 83 1011.5
20260905145525 64 295 2.0 7.0 0.00 0.00 0.00 81 1011.5
20260905145012 64 294 0.0 4.0 0.00 0.00 0.00 82 1011.4
20260905144521 65 259 0.0 4.0 0.00 0.00 0.00 81 1011.4
20260905144025 65 159 0.0 3.0 0.00 0.00 0.00 83 1011.4
20260905143513 64 148 0.0 2.0 0.00 0.00 0.00 83 1011.4
20260905143024 64 285 0.0 2.0 0.00 0.00 0.00 84 1011.4
20260905142528 64 42 0.0 4.0 0.00 0.00 0.00 84 1011.3
20260905142015 64 297 1.0 5.0 0.00 0.00 0.00 84 1011.3
20260905141532 63 285 1.0 5.0 0.00 0.00 0.00 83 1011.3
20260905141008 63 111 1.0 4.0 0.00 0.00 0.00 83 1011.3
20260905140519 63 302 0.0 4.0 0.00 0.00 0.00 85 1011.3
20260905140021 63 217 0.0 4.0 0.00 0.00 0.00 85 1011.3
20260905135509 63 236 0.0 4.0 0.00 0.00 0.00 85 1011.3
20260905135012 62 129 0.0 5.0 0.00 0.00 0.00 86 1011.3
20260905134520 62 181 0.0 6.0 0.00 0.00 0.00 87 1011.3
20260905134024 62 302 2.0 6.0 0.00 0.00 0.00 87 1011.4
20260905133512 62 288 1.0 6.0 0.00 0.00 0.00 86 1011.4